COSMOS 2251 DEB, 47045

Orbit data source: Space-Track

COSMOS 2251 DEB, 47045 is space debris in LEO originally from a launch on Wed, 16 Jun 1993 UTC launched from the Plesetsk Missile And Space Complex (PKMTR). The debris from Iridium 33, an American commercial communications satellite, has been tracked extensively since its accidental collision with the defunct Russian satellite Cosmos 2251 in 2009. This event, occurring at high speed in low Earth orbit (LEO), generated thousands of pieces of space debris, significantly increasing the risk of further collisions. The Iridium 33 debris cloud has impacted space traffic management and orbital debris mitigation strategies, making it a subject of ongoing study in space situational awareness.

Loading next visibility...
Identifier
47045, 1993-036BWZ
Orbit
LEO
Country
Flag of CISCIS
Related business
Manufacturer
Unknown
Mission
Spacecraft
Bus & Motor
Unknown
Mass
Unknown
Launch date (UTC)
1993-06-16 (32 years ago)
Launch vehicle
Unknown
Launch site
Plesetsk Missile And Space Complex (PKMTR)
Object type
Payload
Rocket body
Debris
Shape & HBR
Unknown
Radar Cross Section
Small (<0.1 m²)

Expand to show TLE details & history
Last TLE update: 3 days ago

TLE from 3 days ago
0 COSMOS 2251 DEB
1 47045U 93036BWZ 25258.42213484  .00000212  00000-0  77156-4 0  9996
2 47045  74.0582 311.8298 0028070 116.5939 263.1062 14.38827997 65358
Epoch: 2025-09-15T10:07Z
TLE epoch observation values (Epoch: 2025-09-15T10:07:52.45Z)
Latitude
18.60937°
Longitude
170.72411°
Altitude
766.929 km
Speed
7.471 km/s
True Right ascension
21h 09m 16s
True Declination
18° 30' 21"
Sunlit
Object was in full shadow at epoch
Visualization orbit readout
Latitude
Unknown
Longitude
Unknown
Altitude
Unknown
Speed
Unknown
Apparent Right ascension
Unknown
Apparent Declination
Unknown
Sunlit
N/A
Visualization observer readout
Local Sidereal Time
12:48:12
Azimuth
Unknown
Elevation
Unknown
Doppler factor
Unknown
Orbital elements
Apogee altitude
780.029 km
Perigee altitude
739.956 km
Semi-major axis
7,138.129 km
Eccentricity
0.00281
Inclination
74.0582°
RAAN
311.8298°
Arg. of periapsis
116.5939°
True anomaly
262.787°
Mean anomaly
263.1062°
Eccentric anomaly
262.94659°
Mean motion
3.59887 °/min
Orbital period
100.03 mins
BSTAR
0.000077156
Loading maneuver chart data...
Computing Atmospheric mass density...

Documentation

Showing up to 5 results
|